Regional Weather Roundup
Issued by NWS New Orleans/Baton Rouge, LA

Home | Current Version | Previous Version | Text Only | Print | Product List | Glossary On
Versions: 1 2 3 4 5 6 7 8 9 10 11 12 13 14 15 16 17 18 19 20 21 22 23 24 25 26 27 28 29 30 31 32 33 34 35 36 37 38 39 40 41 42 43 44 45 46 47 48 49 50
000
ASUS44 KLIX 080007
RWRLIX
NEW ORLEANS REGIONAL WEATHER ROUNDUP
NATIONAL WEATHER SERVICE NEW ORLEANS LA
700 PM CDT TUE JUL 07 2015

NOTE: "FAIR" INDICATES FEW OR NO CLOUDS BELOW 12,000 FEET WITH NO
      SIGNIFICANT WEATHER AND/OR OBSTRUCTIONS TO VISIBILITY.
      SKY/WX - SKY CONDITION AND SIGNIFICANT WEATHER.
      TMP - AIR TEMPERATURE.     DP    - DEWPOINT TEMPERATURE.
      RH  - RELATIVE HUMIDITY.   PRES  - PRESSURE.
      HI  - HEAT INDEX.          WCI   - WIND CHILL INDEX.

*  THESE STATIONS ARE NOT NWS OR FAA STATIONS AND ARE NOT UNDER
   NWS QUALITY CONTROL.

LAZ038-040-048-061>063-065>067-069-080100-
SOUTHEAST LOUISIANA

CITY           SKY/WX    TMP DP  RH WIND       PRES   REMARKS
N.O. AUDUBON     N/A     88  76  67 MISG        N/A  HX  98
6HR MIN TEMP:  88; 6HR MAX TEMP:  95;

N.O. INTL ARPT MOSUNNY   88  73  61 S14       30.08S HX  95
6HR MIN TEMP:  88; 6HR MAX TEMP:  92;

N.O. LAKEFRONT SUNNY     90  71  53 S13       30.09R HX  96
6HR MIN TEMP:  90; 6HR MAX TEMP:  95;

N.O. DOWNTOWN*   N/A     91  72  52 S10       30.09S HX  98
6HR MIN TEMP:  91; 6HR MAX TEMP:  97;

RESERVE*       NOT AVBL
SLIDELL        MOSUNNY   88  74  63 S10       30.08R HX  96
6HR MIN TEMP:  88; 6HR MAX TEMP:  92;

BATON ROUGE    CLOUDY    81  67  62 SE6       30.06S
6HR MIN TEMP:  76; 6HR MAX TEMP:  93; 6HR PCP:  0.02;

BOOTHVILLE     MOSUNNY   87  75  67 S9        30.11R HX  96
6HR MIN TEMP:  87; 6HR MAX TEMP:  90;

BELLE CHASSE   MOSUNNY   86  72  62 S13       30.09R
6HR MIN TEMP:  86; 6HR MAX TEMP:  91;

BOGALUSA*        N/A     91  72  53 S6        30.09R HX  98
6HR MIN TEMP:  86; 6HR MAX TEMP:  94; 6HR PCP:  0.13;

GALLIANO*      CLOUDY    89  74  62 MISG      30.10S HX  98
6HR MIN TEMP:  86; 6HR MAX TEMP:  93;

NEW ROADS*       N/A    N/A N/A N/A S5        30.05S
GONZALES*        N/A     81  75  83 CALM      30.06S
6HR MIN TEMP:  75; 6HR MAX TEMP:  93; 6HR PCP:  0.02;

HAMMOND*       RAIN      82  68  61 SE7       30.09R
HOUMA*         MOSUNNY   86  77  74 SE12      30.08S HX  97
PORT FOURCHON* CLEAR     88  75  66 S10       30.10S HX  97

$$

MSZ070-080>082-080100-
SOUTHERN MISSISSIPPI

CITY           SKY/WX    TMP DP  RH WIND       PRES   REMARKS
MCCOMB         PTSUNNY   76  67  73 SW16G30   30.12R
6HR MIN TEMP:  74; 6HR MAX TEMP:  91; 6HR PCP:  0.05;

GULFPORT       SUNNY     87  75  67 S7        30.10R HX  96
6HR MIN TEMP:  86; 6HR MAX TEMP:  89;

BILOXI         SUNNY     86  75  70 S12       30.10R HX  95
6HR MIN TEMP:  86; 6HR MAX TEMP:  89;

PASCAGOULA     SUNNY     85  75  72 S6        30.11R
6HR MIN TEMP:  85; 6HR MAX TEMP:  90;

STENNIS ARPT*  MOSUNNY   86  72  62 S8        30.09

$$

COASTAL OBSERVATIONS
LAKE AND NEARSHORE STATIONS

STATION/POSITION TIME  TEMP    WIND        PRES    WAVE
                       AIR SEA DIR/SP/G            HT/PER
                 (UTC) (F)     (DEG/KT/KT) (MB)    (FT/S)
PASCAGOULA       2300   87     200/  9/ 12 1019.0
WAVELAND YACHT   2300   86 87  160/ 13/ 17 1019.3
GRAND ISLE       2300   87 89  170/  7/ 11 1019.2
SOUTHWEST PASS   2300   87 83              1019.7
NEW CANAL        2300   90 86  190/  5/  8 1017.9
SHELL BEACH      2300   87 86  160/ 13/ 16 1018.4

OFFSHORE STATIONS

STATION/POSITION TIME  TEMP    WIND        PRES    WAVE
                       AIR SEA DIR/SP/G            HT/PER
                 (UTC) (F)     (DEG/KT/KT) (MB)    (FT/S)
64 S DAUPHIN ISL 2350   85 89  150/  8/ 10 1020.2    1/ 5

$$



USA.gov is the U.S. government's official web portal to all federal, state and local government web resources and services.